Ankeny, IA

7:20 AM CST on November 15, 2019 (GMT -0600)
Ankeny Regional

Weather History for KIKV - October, 2019

Change the Weather History Date:

Monday, October 21, 2019

  Actual Average (KDSM) Record (KDSM)
Temperature  
Mean Temperature 48 °F -  
Max Temperature 53 °F 64 °F 86 °F (1947)
Min Temperature 44 °F 41 °F 21 °F (1930)
Degree Days  
Heating Degree Days 16    
Moisture  
Dew Point 46 °F    
Average Humidity 85    
Maximum Humidity 100    
Minimum Humidity 71    
Precipitation  
Precipitation 1.31 in - - ()
Sea Level Pressure  
Sea Level Pressure 29.42 in    
Wind  
Wind Speed 13 mph ()    
Max Wind Speed 25 mph    
Max Gust Speed 36 mph    
Visibility 8.3 miles    
Events Rain    
Averages and records for this station are not official NWS values.
T = Trace of Precipitation, MM = Missing Value Source: Averaged Metar Reports

Daily Weather History Graph

Daily Weather History Graph

Search for Another Location

Airport or City:

Astronomy

Oct. 21, 2019 Rise Set
Actual Time 7:33 AM CDT 6:24 PM CDT
Civil Twilight 7:04 AM CDT 6:52 PM CDT
Nautical Twilight 6:32 AM CDT 7:24 PM CDT
Astronomical Twilight 6:00 AM CDT 7:56 PM CDT
Moon No Moon Rise 2:54 PM CDT (10/21)
Length of Visible Light 11h 47m
Length of Day
10h 51m
Waning Gibbous, 48% of the Moon is Illuminated
Oct 21
Waning Gibbous
Oct 27
New
Nov 4
First Quarter
Nov 12
Full
Nov 19
Last Quarter

Hourly Weather History & Observations

Time (CDT) Temp. Windchill Dew Point Humidity Pressure Visibility Wind Dir Wind Speed Gust Speed Precip Events Conditions
12:15 AM 51.8 °F - 48.2 °F 88% 29.59 in 3.0 mi ENE 10.4 mph - N/A Rain Light Rain
12:35 AM 51.8 °F - 50.0 °F 94% 29.60 in 4.0 mi NNE 8.1 mph - N/A Rain Rain
12:55 AM 51.8 °F - 50.0 °F 94% 29.62 in 1.2 mi NNW 17.3 mph 31.1 mph 0.68 in Rain Heavy Rain
1:15 AM 51.8 °F - 50.0 °F 94% 29.62 in 4.0 mi NE 9.2 mph - N/A Rain Heavy Rain
1:35 AM 51.8 °F - 50.0 °F 94% 29.59 in 4.0 mi NE 10.4 mph - N/A Rain Light Rain
1:55 AM 51.8 °F - 50.0 °F 94% 29.58 in 7.0 mi ENE 6.9 mph - 0.19 in Rain Light Rain
2:15 AM 51.8 °F - 50.0 °F 94% 29.57 in 10.0 mi East 10.4 mph - N/A   Overcast
2:35 AM 51.8 °F - 50.0 °F 94% 29.55 in 4.0 mi East 5.8 mph - N/A   Overcast
2:55 AM 51.8 °F - 50.0 °F 94% 29.53 in 6.0 mi East 10.4 mph - 0.04 in Rain Light Rain
3:15 AM 51.8 °F - 50.0 °F 94% 29.47 in 5.0 mi East 19.6 mph - N/A Rain Light Rain
3:35 AM 51.8 °F - 50.0 °F 94% 29.42 in 9.0 mi East 17.3 mph 29.9 mph N/A   Overcast
3:55 AM 51.8 °F - 51.8 °F 100% 29.41 in 10.0 mi East 11.5 mph 20.7 mph 0.04 in   Overcast
4:15 AM 53.6 °F - 51.8 °F 94% 29.40 in 8.0 mi SE 10.4 mph 17.3 mph N/A   Overcast
4:35 AM 53.6 °F - 51.8 °F 94% 29.36 in 5.0 mi SE 20.7 mph 27.6 mph N/A Rain Light Rain
4:55 AM 53.6 °F - 51.8 °F 94% 29.36 in 10.0 mi ESE 15.0 mph 21.9 mph 0.03 in   Overcast
5:15 AM 53.6 °F - 51.8 °F 94% 29.37 in 10.0 mi SE 13.8 mph 25.3 mph N/A   Overcast
5:35 AM 53.6 °F - 51.8 °F 94% 29.35 in 9.0 mi SE 12.7 mph 23.0 mph N/A   Overcast
5:55 AM 53.6 °F - 51.8 °F 94% 29.33 in 6.0 mi SE 13.8 mph - 0.02 in Rain Light Rain
6:15 AM 53.6 °F - 53.6 °F 100% 29.33 in 2.5 mi SSE 13.8 mph 19.6 mph N/A Rain Light Rain
6:35 AM 53.6 °F - 53.6 °F 100% 29.32 in 6.0 mi SSE 10.4 mph - N/A Rain Light Rain
6:55 AM 53.6 °F - 53.6 °F 100% 29.32 in 2.0 mi Variable 5.8 mph 13.8 mph 0.26 in Rain Heavy Rain
7:15 AM 53.6 °F - 53.6 °F 100% 29.33 in 9.0 mi SW 5.8 mph - N/A   Overcast
7:35 AM 53.6 °F - 51.8 °F 94% 29.34 in 9.0 mi Variable 6.9 mph - N/A   Overcast
7:55 AM 53.6 °F - 50.0 °F 88% 29.33 in 10.0 mi WSW 12.7 mph - 0.02 in   Overcast
8:15 AM 51.8 °F - 50.0 °F 94% 29.34 in 10.0 mi SW 4.6 mph - N/A   Mostly Cloudy
8:35 AM 51.8 °F - 48.2 °F 88% 29.33 in 10.0 mi SSW 5.8 mph - N/A   Partly Cloudy
8:55 AM 51.8 °F - 46.4 °F 82% 29.34 in 10.0 mi SW 10.4 mph 17.3 mph N/A   Clear
9:15 AM 50.0 °F - 42.8 °F 76% 29.34 in 10.0 mi SW 11.5 mph - N/A   Clear
9:35 AM 50.0 °F - 42.8 °F 76% 29.35 in 10.0 mi WSW 8.1 mph 16.1 mph N/A   Clear
9:55 AM 50.0 °F - 42.8 °F 76% 29.35 in 10.0 mi SW 9.2 mph 16.1 mph N/A   Clear
10:15 AM 48.2 °F - 41.0 °F 76% 29.35 in 10.0 mi SW 12.7 mph 24.2 mph N/A   Partly Cloudy
10:35 AM 50.0 °F - 42.8 °F 76% 29.36 in 10.0 mi SW 15.0 mph - N/A   Mostly Cloudy
10:55 AM 48.2 °F - 42.8 °F 82% 29.35 in 10.0 mi WSW 12.7 mph 20.7 mph N/A   Overcast
11:15 AM 48.2 °F - 41.0 °F 76% 29.36 in 10.0 mi SW 15.0 mph 25.3 mph N/A   Overcast
11:35 AM 48.2 °F - 41.0 °F 76% 29.37 in 10.0 mi WSW 13.8 mph 21.9 mph N/A   Overcast
11:55 AM 46.4 °F 39.0 °F 41.0 °F 81% 29.36 in 10.0 mi WSW 19.6 mph 27.6 mph N/A   Overcast
12:15 PM 48.2 °F - 41.0 °F 76% 29.36 in 10.0 mi WSW 15.0 mph 21.9 mph N/A   Overcast
12:35 PM 48.2 °F - 41.0 °F 76% 29.37 in 10.0 mi SW 13.8 mph 26.5 mph N/A   Overcast
12:55 PM 48.2 °F - 41.0 °F 76% 29.36 in 10.0 mi SW 20.7 mph 27.6 mph N/A   Overcast
1:15 PM 50.0 °F - 41.0 °F 71% 29.36 in 10.0 mi SW 24.2 mph 29.9 mph N/A   Overcast
1:35 PM 48.2 °F - 41.0 °F 76% 29.37 in 10.0 mi SW 21.9 mph 28.8 mph N/A   Overcast
1:55 PM 48.2 °F - 41.0 °F 76% 29.38 in 10.0 mi SW 21.9 mph - N/A   Overcast
2:15 PM 48.2 °F - 39.2 °F 71% 29.39 in 10.0 mi SW 18.4 mph 32.2 mph N/A   Overcast
2:35 PM 48.2 °F - 41.0 °F 76% 29.39 in 10.0 mi SW 17.3 mph 26.5 mph N/A   Overcast
2:55 PM 48.2 °F - 41.0 °F 76% 29.39 in 10.0 mi SW 19.6 mph 27.6 mph N/A   Overcast
3:15 PM 48.2 °F - 41.0 °F 76% 29.39 in 10.0 mi SW 16.1 mph 27.6 mph N/A   Overcast
3:35 PM 48.2 °F - 41.0 °F 76% 29.39 in 10.0 mi SW 21.9 mph 27.6 mph N/A   Overcast
3:55 PM 50.0 °F - 41.0 °F 71% 29.39 in 10.0 mi SW 20.7 mph 31.1 mph N/A   Overcast
4:15 PM 50.0 °F - 42.8 °F 76% 29.39 in 10.0 mi SW 18.4 mph 29.9 mph N/A   Overcast
4:35 PM 50.0 °F - 42.8 °F 76% 29.40 in 10.0 mi WSW 16.1 mph - N/A   Mostly Cloudy
4:55 PM 50.0 °F - 44.6 °F 82% 29.40 in 9.0 mi SW 17.3 mph 27.6 mph N/A   Scattered Clouds
5:15 PM 50.0 °F - 44.6 °F 82% 29.41 in 10.0 mi SW 16.1 mph 28.8 mph N/A   Scattered Clouds
5:35 PM 50.0 °F - 44.6 °F 82% 29.41 in 10.0 mi SW 16.1 mph 23.0 mph N/A   Overcast
5:55 PM 50.0 °F - 44.6 °F 82% 29.41 in 10.0 mi SW 17.3 mph 24.2 mph N/A   Overcast
6:15 PM 50.0 °F - 44.6 °F 82% 29.41 in 10.0 mi SW 18.4 mph 26.5 mph N/A   Overcast
6:35 PM 51.8 °F - 44.6 °F 76% 29.42 in 10.0 mi WSW 21.9 mph 31.1 mph N/A   Overcast
6:55 PM 50.0 °F - 44.6 °F 82% 29.42 in 9.0 mi WSW 17.3 mph 25.3 mph N/A   Overcast
7:15 PM 48.2 °F - 44.6 °F 87% 29.44 in 4.0 mi West 17.3 mph 34.5 mph N/A Rain Light Rain
7:35 PM 46.4 °F 38.3 °F 42.8 °F 87% 29.46 in 3.0 mi West 23.0 mph 32.2 mph N/A Rain Light Rain
7:55 PM 46.4 °F 39.0 °F 41.0 °F 81% 29.47 in 10.0 mi West 19.6 mph 28.8 mph 0.01 in   Overcast
8:15 PM 44.6 °F 36.9 °F 41.0 °F 87% 29.47 in 10.0 mi West 18.4 mph 28.8 mph N/A   Overcast
8:35 PM 44.6 °F 37.4 °F 41.0 °F 87% 29.47 in 10.0 mi West 16.1 mph 27.6 mph N/A   Overcast
8:55 PM 46.4 °F 38.7 °F 41.0 °F 81% 29.47 in 10.0 mi WSW 20.7 mph 27.6 mph N/A   Overcast
9:15 PM 46.4 °F 39.8 °F 42.8 °F 87% 29.48 in 10.0 mi WSW 16.1 mph 28.8 mph N/A   Overcast
9:35 PM 46.4 °F 38.5 °F 42.8 °F 87% 29.48 in 6.0 mi WSW 21.9 mph 29.9 mph N/A Rain Light Rain
9:55 PM 46.4 °F 39.5 °F 42.8 °F 87% 29.48 in 10.0 mi WSW 17.3 mph 28.8 mph N/A   Overcast
10:15 PM 46.4 °F 39.0 °F 42.8 °F 87% 29.48 in 6.0 mi WSW 19.6 mph 29.9 mph N/A   Overcast
10:35 PM 46.4 °F 38.5 °F 42.8 °F 87% 29.49 in 6.0 mi West 21.9 mph 35.7 mph N/A Rain Light Rain
10:55 PM 46.4 °F 39.2 °F 42.8 °F 87% 29.50 in 6.0 mi West 18.4 mph 31.1 mph 0.01 in   Overcast
11:35 PM 46.4 °F 38.5 °F 42.8 °F 87% 29.52 in 8.0 mi West 21.9 mph 33.4 mph N/A   Light Drizzle
11:55 PM 46.4 °F 37.9 °F 42.8 °F 87% 29.52 in 9.0 mi West 25.3 mph 35.7 mph 0.01 in Rain Light Rain